sat.trackr.live / text

‹ back to catalog

STARLINK-3117

NORAD 49435 · 2021-104AD

PAYLOAD ACTIVE UNKNOWN

§ Identity

Operator
Country
US
Launch date
2021-11-13
Launch site
AFETR
Launch vehicle
Mass (kg)
RCS (m²)

Purposes: comms

External: N2YO · Heavens-Above · Gunter

§ Orbital elements

Epoch: 2026-09-13T04:00:01.998720Z

Period
94.33 min
Inclination
53.1619°
Eccentricity
0.0001770
Mean motion
15.26608800 rev/d
Perigee alt
484.7 km
Apogee alt
487.2 km
Semi-major
6,864.1 km
B*
1.8792e-3
RAAN
85.9729°
Arg perigee
75.8221°
Mean anomaly
57.3774°
Rev number
584

§ Raw data

STARLINK-31171 49435U 21104AD  26256.16668980  .00049857  00000+0  18792-2 0  99992 49435  53.1619  85.9729 0001770  75.8221  57.3774 15.26608800  5848

JSON: /api/v1/satellites/49435 · /tle

For live sub-satellite position, see the globe view (requires WebGL).

§ Visibility from observer

Set your observer location to see the next 7 days of passes ≥ 10°. The values pass through the URL so the page stays shareable.

No JS? Fill the form by hand. The geolocation button needs JavaScript.